Location: Crescent
(42.8242°N, 73.7329°W)
Time: 14:40:27
(UTC+00:00)

Transit 2A Rocket - Pass Details

Date: 19 February 2026
Orbit: 583 x 900 km, 66.7° (Epoch: 14 March)

Event Time Altitude Azimuth Distance (km) Brightness Sun altitude
Rises 22:59:52 0° 277° (W) 3,518 10.2 -5.9°
Reaches altitude 10° 23:04:16 10° 307° (NW) 2,571 8.4 -6.7°
Maximum altitude 23:06:34 12° 330° (NNW) 2,404 7.9 -7.1°
Drops below altitude 10° 23:08:51 10° 353° (N) 2,541 7.7 -7.5°
Sets 23:13:09 0° 23° (NNE) 3,429 8.1 -8.3°
